Location: Unspecified
(0.0000°N, 0.0000°E)
Time: 13:57:14
(UTC+02:00)

Vanguard 1 Rocket - Visible Passes

Search period start: 23 July 2018 00:00
Search period end: 02 August 2018 00:00
Orbit: 652 x 4225 km, 34.3° (Epoch: 22 July)

Date Brightness Start Highest point End Pass type
(mag) Time Alt. Az. Time Alt. Az. Time Alt. Az.
23 Jul 11.7 02:08:38 11° ESE 02:08:38 11° ESE 02:09:55 10° ESE visible
23 Jul 10.5 04:25:56 55° SSE 04:28:46 57° SE 04:54:12 10° ENE visible
23 Jul 10.7 06:43:15 23° WSW 07:02:36 70° NW 07:25:58 10° NE visible
24 Jul 11.0 03:18:55 36° ESE 03:18:55 36° ESE 03:36:31 10° E visible
24 Jul 10.4 05:36:12 48° SW 05:46:50 89° SE 06:12:32 10° NE visible
25 Jul 11.6 02:11:52 15° ESE 02:11:52 15° ESE 02:15:54 10° E visible
25 Jul 10.3 04:29:10 65° SSE 04:31:25 67° SE 04:57:36 10° ENE visible
25 Jul 10.8 06:46:27 22° WSW 07:05:20 60° NW 07:28:37 10° NE visible
26 Jul 10.8 03:22:06 42° ESE 03:22:06 42° ESE 03:40:41 10° ENE visible
26 Jul 10.3 05:39:24 49° WSW 05:49:27 79° NW 06:15:18 10° NE visible
27 Jul 11.5 02:15:01 18° E 02:15:01 18° E 02:21:14 10° E visible
27 Jul 10.2 04:32:18 76° S 04:34:01 79° SE 05:00:41 10° ENE visible
27 Jul 10.9 06:49:36 20° W 07:08:16 50° NW 07:31:11 10° NE visible
28 Jul 10.6 03:25:11 49° E 03:25:11 49° E 03:44:23 10° ENE visible
28 Jul 10.4 05:42:29 46° W 05:52:11 68° NW 06:17:55 10° NE visible
29 Jul 11.3 02:18:02 22° E 02:18:02 22° E 02:25:56 10° E visible
29 Jul 10.1 04:35:20 84° WSW 04:36:38 89° NW 05:03:31 10° NE visible
29 Jul 11.1 06:52:37 17° W 07:11:29 42° NNW 07:33:45 10° NE visible
30 Jul 10.5 03:28:09 55° E 03:28:09 55° E 03:47:40 10° ENE visible
30 Jul 10.5 05:45:26 41° W 05:55:07 58° NW 06:20:26 10° NE visible
31 Jul 11.2 02:20:56 26° E 02:20:56 26° E 02:30:02 10° ENE visible
31 Jul 10.1 04:38:13 75° WNW 04:39:23 76° NW 05:06:08 10° NE visible
31 Jul 11.2 06:55:29 13° W 07:15:03 36° NNW 07:36:23 10° NNE visible
01 Aug 10.4 03:30:58 59° ENE 03:30:58 59° ENE 03:50:37 10° NE visible
01 Aug 10.6 05:48:14 35° WNW 05:58:18 48° NNW 06:22:54 10° NE visible
